This is the latest recevied weather packets stored in our database for station/object K8MUD. If no packets are shown the sender has not sent any weather packets the latest 1 day(s).
| Time | Temp. | Humidity | Pressure | Rain* | Wind** | Luminosity | Snow |
|---|---|---|---|---|---|---|---|
| 1778014571 | 13.89° C | 68% | 1006.8 hPa | 0 mm | - | - | - |
| 1778013971 | 13.89° C | 68% | 1006.9 hPa | 0 mm | - | - | - |
| 1778013671 | 13.89° C | 68% | 1006.8 hPa | 0 mm | - | - | - |
| 1778013371 | 13.33° C | 68% | 1006.9 hPa | 0 mm | - | - | - |
| 1778010370 | 12.78° C | 70% | 1006.9 hPa | 0 mm | - | - | - |
| 1778009770 | 12.78° C | 70% | 1007 hPa | 0 mm | - | - | - |
| 1778009170 | 12.78° C | 71% | 1007.1 hPa | 0 mm | - | - | - |
| 1778008870 | 12.78° C | 70% | 1007.3 hPa | 0 mm | - | - | - |
| 1778005569 | 12.22° C | 79% | 1006.8 hPa | 0.25 mm | - | - | - |
| 1778005269 | 12.22° C | 79% | 1006.8 hPa | 0.25 mm | - | - | - |
| 1778004969 | 11.67° C | 80% | 1006.6 hPa | 0.25 mm | - | - | - |
| 1778004669 | 11.67° C | 79% | 1006.8 hPa | 0.25 mm | - | - | - |
| 1778004369 | 11.67° C | 80% | 1006.8 hPa | 0.51 mm | - | - | - |
| 1778004069 | 11.67° C | 80% | 1006.8 hPa | 0.51 mm | - | - | - |
| 1778003769 | 11.67° C | 81% | 1006.7 hPa | 0.51 mm | - | - | - |
| 1778001068 | 11.67° C | 80% | 1006.7 hPa | 0.25 mm | - | - | - |
| 1778000768 | 11.67° C | 79% | 1006.9 hPa | 0 mm | - | - | - |
| 1778000468 | 11.67° C | 79% | 1006.9 hPa | 0 mm | - | - | - |
| 1778000168 | 11.67° C | 78% | 1006.9 hPa | 0 mm | - | - | - |
| 1777999868 | 11.67° C | 77% | 1006.8 hPa | 0 mm | - | - | - |
| 1777997467 | 12.78° C | 72% | 1005.8 hPa | 0 mm | - | - | - |
* Rain latest hour (hover to see other rain measurements)
** Current wind speed in m/s (hover to see current wind gust speed)